Location: Bo?a Wola
(50.4192°N, 19.7966°E)
Time: 02:18:50
(UTC+00:00)

BREEZE-M R/B - Pass Details

Date: 15 June 2024
Orbit: 1073 x 14785 km, 50.7° (Epoch: 22 July)

Event Time Altitude Azimuth Distance (km) Brightness Sun altitude
Rises 01:19:59 0° 288° (WNW) 6,308 8.0 -8.4°
Reaches altitude 10° 01:24:45 10° 287° (WNW) 4,317 7.1 -7.9°
Maximum altitude 01:33:20 67° 206° (SSW) 1,240 4.4 -7.1°
Drops below altitude 10° 01:39:06 10° 124° (SE) 2,952 6.6 -6.5°
Sets 01:41:41 0° 121° (ESE) 4,108 7.4 -6.2°
